This is the latest recevied weather packets stored in our database for station/object DG3OBU-6. If no packets are shown the sender has not sent any weather packets the latest 10 day(s).
| Time | Temp. | Humidity | Pressure | Rain* | Wind** | Luminosity | Snow |
|---|---|---|---|---|---|---|---|
| 1777764002 | 16.67° C | 77% | 1013.8 hPa | 0 mm | - | - | - |
| 1777763702 | 16.67° C | 76% | 1014 hPa | 0 mm | - | - | - |
| 1777763402 | 16.67° C | 76% | 1014.1 hPa | 0 mm | - | - | - |
| 1777763102 | 16.67° C | 76% | 1014.1 hPa | 0 mm | - | - | - |
| 1777762803 | 16.67° C | 75% | 1014.1 hPa | 0 mm | - | - | - |
| 1777762502 | 17.22° C | 74% | 1014.1 hPa | 0 mm | - | - | - |
| 1777762202 | 17.22° C | 74% | 1014 hPa | 0 mm | - | - | - |
| 1777761902 | 17.22° C | 74% | 1013.9 hPa | 0 mm | - | - | - |
| 1777761603 | 17.22° C | 75% | 1013.9 hPa | 0 mm | - | - | - |
| 1777761303 | 17.22° C | 76% | 1013.9 hPa | 0 mm | - | - | - |
| 1777761003 | 16.11° C | 78% | 1014.1 hPa | 0 mm | - | - | - |
| 1777760703 | 15° C | 81% | 1013.9 hPa | 0 mm | - | - | - |
| 1777760402 | 14.44° C | 82% | 1013.8 hPa | 0 mm | - | - | - |
| 1777760102 | 14.44° C | 82% | 1013.9 hPa | 0 mm | - | - | - |
| 1777759802 | 14.44° C | 82% | 1014 hPa | 0 mm | - | - | - |
| 1777759502 | 14.44° C | 82% | 1013.6 hPa | 0 mm | - | - | - |
| 1777758902 | 13.89° C | 82% | 1013.3 hPa | 0 mm | - | - | - |
| 1777758602 | 13.89° C | 82% | 1013.3 hPa | 0 mm | - | - | - |
| 1777758302 | 13.89° C | 81% | 1013.3 hPa | 0 mm | - | - | - |
| 1777758002 | 14.44° C | 82% | 1013.4 hPa | 0 mm | - | - | - |
| 1777757702 | 14.44° C | 82% | 1013.5 hPa | 0 mm | - | - | - |
| 1777757402 | 13.89° C | 82% | 1013.4 hPa | 0 mm | - | - | - |
| 1777757102 | 13.89° C | 81% | 1013.4 hPa | 0 mm | - | - | - |
| 1777756802 | 13.89° C | 81% | 1013.4 hPa | 0 mm | - | - | - |
| 1777756502 | 13.89° C | 81% | 1013.4 hPa | 0 mm | - | - | - |
* Rain latest hour (hover to see other rain measurements)
** Current wind speed in m/s (hover to see current wind gust speed)